This is the latest recevied weather packets stored in our database for station/object KC5DAQ-25. If no packets are shown the sender has not sent any weather packets the latest 10 day(s).
| Time | Temp. | Humidity | Pressure | Rain* | Wind** | Luminosity | Snow |
|---|---|---|---|---|---|---|---|
| 1778165522 | 16.67° C | 84% | 1007.7 hPa | 0 mm | - | 176 W/m² | - |
| 1778165462 | 16.67° C | 84% | 1007.7 hPa | 0 mm | - | 176 W/m² | - |
| 1778165402 | 16.67° C | 84% | 1007.7 hPa | 0 mm | - | 176 W/m² | - |
| 1778165344 | 16.67° C | 84% | 1007.8 hPa | 0 mm | - | 176 W/m² | - |
| 1778165282 | 16.67° C | 84% | 1007.9 hPa | 0 mm | - | 181 W/m² | - |
| 1778165223 | 16.67° C | 84% | 1007.9 hPa | 0 mm | - | 165 W/m² | - |
| 1778165164 | 16.67° C | 84% | 1008 hPa | 0 mm | - | 165 W/m² | - |
| 1778165103 | 16.67° C | 84% | 1007.9 hPa | 0 mm | - | 165 W/m² | - |
| 1778165095 | 16.67° C | 84% | 1008 hPa | 0 mm | - | 215 W/m² | - |
| 1778165090 | 16.67° C | 85% | 1007.9 hPa | 0 mm | - | 215 W/m² | - |
| 1778165077 | 16.67° C | 84% | 1008 hPa | 0 mm | - | 171 W/m² | - |
| 1778165063 | 16.67° C | 84% | 1007.9 hPa | 0 mm | - | 171 W/m² | - |
| 1778164905 | 16.67° C | 85% | 1007.9 hPa | 0 mm | - | 215 W/m² | - |
| 1778164881 | 16.67° C | 85% | 1008 hPa | 0 mm | - | 215 W/m² | - |
| 1778164682 | 16.67° C | 85% | 1007.8 hPa | 0 mm | - | 215 W/m² | - |
| 1778164622 | 16.67° C | 85% | 1007.8 hPa | 0 mm | - | 215 W/m² | - |
| 1778164564 | 16.67° C | 85% | 1007.7 hPa | 0 mm | - | 215 W/m² | - |
| 1778164496 | 16.67° C | 85% | 1007.8 hPa | 0 mm | - | 215 W/m² | - |
| 1778164411 | 16.67° C | 85% | 1007.8 hPa | 0 mm | - | 215 W/m² | - |
| 1778164352 | 16.67° C | 85% | 1007.8 hPa | 0 mm | - | 237 W/m² | - |
| 1778164295 | 16.67° C | 85% | 1007.9 hPa | 0 mm | - | 237 W/m² | - |
| 1778164232 | 16.67° C | 85% | 1007.9 hPa | 0 mm | - | 237 W/m² | - |
| 1778164169 | 16.67° C | 85% | 1007.9 hPa | 0 mm | - | 237 W/m² | - |
| 1778164108 | 16.67° C | 85% | 1007.8 hPa | 0 mm | - | 237 W/m² | - |
| 1778164048 | 16.67° C | 85% | 1007.8 hPa | 0 mm | - | 216 W/m² | - |
* Rain latest hour (hover to see other rain measurements)
** Current wind speed in m/s (hover to see current wind gust speed)